Grub im Wienerwald
Wetterdaten: aktuell Dienstag, 25.07.2017 08:33
Datum Zeit Temp. A. Feuchte A. Luftdruck Regen Wind Richtung Richtung Sonnenschein UV Solar Taupunkt Windchill Windben
25.07.2017 08:33 15,3 C 78 % 1005,0 hPa 0,0 l/m 12,1 km/h W 273 3 min 2,0 UV-I 346 W/m 11,5 C 12,6 C 22,5 km/h
25.07.2017 08:30 15,3 C 78 % 1005,1 hPa 0,0 l/m 13,4 km/h N-NW 333 3 min 1,9 UV-I 357 W/m 11,5 C 12,1 C 37,0 km/h
25.07.2017 08:27 15,3 C 77 % 1005,0 hPa 0,0 l/m 14,6 km/h W-NW 288 3 min 1,5 UV-I 315 W/m 11,3 C 11,7 C 32,2 km/h
25.07.2017 08:24 15,3 C 78 % 1005,0 hPa 0,0 l/m 13,6 km/h NW 325 3 min 1,7 UV-I 315 W/m 11,5 C 12,0 C 27,4 km/h
25.07.2017 08:21 15,2 C 78 % 1005,0 hPa 0,0 l/m 12,0 km/h NW 322 3 min 1,6 UV-I 380 W/m 11,4 C 12,5 C 24,1 km/h
25.07.2017 08:18 15,2 C 78 % 1004,9 hPa 0,0 l/m 14,5 km/h W-NW 291 3 min 1,7 UV-I 373 W/m 11,4 C 11,6 C 30,6 km/h
25.07.2017 08:15 15,2 C 77 % 1004,9 hPa 0,0 l/m 19,2 km/h N 350 3 min 1,6 UV-I 327 W/m 11,2 C 10,2 C 32,2 km/h
25.07.2017 08:12 15,2 C 78 % 1005,0 hPa 0,0 l/m 15,8 km/h W-NW 291 3 min 1,5 UV-I 341 W/m 11,4 C 11,2 C 30,6 km/h
25.07.2017 08:09 15,2 C 78 % 1004,9 hPa 0,0 l/m 16,5 km/h W-NW 298 3 min 1,5 UV-I 327 W/m 11,4 C 11,0 C 33,8 km/h
25.07.2017 08:06 15,1 C 79 % 1005,2 hPa 0,0 l/m 13,5 km/h W 275 3 min 1,5 UV-I 341 W/m 11,5 C 11,8 C 25,7 km/h
25.07.2017 08:03 15,1 C 79 % 1005,0 hPa 0,0 l/m 14,7 km/h W-SW 251 3 min 1,5 UV-I 339 W/m 11,5 C 11,4 C 24,1 km/h
25.07.2017 08:00 15,1 C 80 % 1005,0 hPa 0,0 l/m 11,7 km/h NW 313 0 min 1,4 UV-I 176 W/m 11,7 C 12,5 C 22,5 km/h
25.07.2017 07:57 15,0 C 80 % 1005,1 hPa 0,0 l/m 13,2 km/h W-NW 296 3 min 1,3 UV-I 290 W/m 11,6 C 11,8 C 24,1 km/h
25.07.2017 07:54 14,9 C 80 % 1005,0 hPa 0,0 l/m 11,2 km/h NW 318 3 min 1,3 UV-I 283 W/m 11,5 C 12,5 C 19,3 km/h
25.07.2017 07:51 14,8 C 80 % 1004,9 hPa 0,0 l/m 13,2 km/h N-NW 338 3 min 1,2 UV-I 381 W/m 11,4 C 11,6 C 24,1 km/h
25.07.2017 07:48 14,7 C 81 % 1005,0 hPa 0,0 l/m 12,0 km/h NW 312 3 min 1,3 UV-I 359 W/m 11,5 C 11,9 C 27,4 km/h
25.07.2017 07:45 14,6 C 81 % 1005,1 hPa 0,0 l/m 14,6 km/h NW 318 3 min 1,3 UV-I 352 W/m 11,4 C 10,8 C 27,4 km/h
25.07.2017 07:42 14,5 C 81 % 1005,1 hPa 0,0 l/m 11,0 km/h W 267 3 min 1,1 UV-I 209 W/m 11,3 C 12,1 C 22,5 km/h
25.07.2017 07:39 14,4 C 81 % 1005,1 hPa 0,0 l/m 11,4 km/h NW 325 3 min 1,1 UV-I 213 W/m 11,2 C 11,8 C 22,5 km/h
25.07.2017 07:36 14,3 C 81 % 1005,1 hPa 0,0 l/m 7,9 km/h NW 321 3 min 1,1 UV-I 192 W/m 11,1 C 13,4 C 12,9 km/h
25.07.2017 07:33 14,3 C 82 % 1005,2 hPa 0,0 l/m 8,6 km/h W-NW 294 0 min 1,0 UV-I 107 W/m 11,3 C 13,0 C 20,9 km/h
25.07.2017 07:30 14,2 C 82 % 1005,2 hPa 0,0 l/m 9,9 km/h N-NW 332 3 min 1,0 UV-I 260 W/m 11,2 C 12,3 C 24,1 km/h
25.07.2017 07:27 14,1 C 82 % 1005,2 hPa 0,0 l/m 10,6 km/h NW 321 3 min 1,0 UV-I 216 W/m 11,1 C 11,8 C 22,5 km/h
25.07.2017 07:24 13,9 C 83 % 1005,1 hPa 0,0 l/m 11,0 km/h N-NW 344 3 min 0,9 UV-I 230 W/m 11,1 C 11,4 C 22,5 km/h
25.07.2017 07:21 13,8 C 83 % 1005,1 hPa 0,0 l/m 15,1 km/h W-NW 292 3 min 0,9 UV-I 227 W/m 11,0 C 9,7 C 30,6 km/h
25.07.2017 07:18 13,7 C 84 % 1005,2 hPa 0,0 l/m 8,7 km/h W-NW 299 3 min 0,9 UV-I 207 W/m 11,0 C 12,3 C 14,5 km/h
25.07.2017 07:15 13,7 C 84 % 1005,2 hPa 0,0 l/m 10,5 km/h W-NW 302 3 min 0,9 UV-I 199 W/m 11,0 C 11,4 C 14,5 km/h
25.07.2017 07:12 13,6 C 84 % 1005,1 hPa 0,0 l/m 10,2 km/h N-NW 331 3 min 0,8 UV-I 163 W/m 10,9 C 11,5 C 19,3 km/h
25.07.2017 07:09 13,6 C 84 % 1005,2 hPa 0,0 l/m 13,2 km/h N-NW 329 0 min 0,8 UV-I 72 W/m 10,9 C 10,2 C 24,1 km/h
25.07.2017 07:06 13,5 C 84 % 1005,2 hPa 0,0 l/m 7,7 km/h W-NW 293 0 min 0,7 UV-I 107 W/m 10,8 C 12,7 C 19,3 km/h
25.07.2017 07:03 13,5 C 84 % 1005,2 hPa 0,0 l/m 10,8 km/h N 355 0 min 0,7 UV-I 90 W/m 10,8 C 11,1 C 25,7 km/h
25.07.2017 07:00 13,5 C 83 % 1005,1 hPa 0,0 l/m 8,3 km/h N 360 0 min 0,7 UV-I 79 W/m 10,7 C 12,4 C 14,5 km/h
25.07.2017 06:57 13,5 C 83 % 1005,1 hPa 0,0 l/m 9,6 km/h W 267 0 min 0,0 UV-I 54 W/m 10,7 C 11,7 C 22,5 km/h
25.07.2017 06:54 13,5 C 83 % 1005,1 hPa 0,0 l/m 11,1 km/h W 263 0 min 0,5 UV-I 62 W/m 10,7 C 10,9 C 20,9 km/h
25.07.2017 06:51 13,5 C 83 % 1005,0 hPa 0,0 l/m 14,8 km/h N-NW 341 0 min 0,0 UV-I 53 W/m 10,7 C 9,4 C 29,0 km/h
25.07.2017 06:48 13,4 C 83 % 1005,0 hPa 0,0 l/m 11,5 km/h N-NW 346 0 min 0,5 UV-I 62 W/m 10,6 C 10,6 C 22,5 km/h
25.07.2017 06:45 13,4 C 83 % 1005,0 hPa 0,0 l/m 11,8 km/h NW 311 0 min 0,5 UV-I 74 W/m 10,6 C 10,5 C 17,7 km/h
25.07.2017 06:42 13,4 C 83 % 1005,0 hPa 0,0 l/m 12,2 km/h NW 317 0 min 0,5 UV-I 77 W/m 10,6 C 10,3 C 19,3 km/h
25.07.2017 06:39 13,4 C 84 % 1005,0 hPa 0,0 l/m 8,9 km/h W 266 0 min 0,0 UV-I 77 W/m 10,8 C 11,9 C 14,5 km/h
25.07.2017 06:36 13,4 C 84 % 1004,9 hPa 0,0 l/m 11,0 km/h NW 311 0 min 0,0 UV-I 79 W/m 10,8 C 10,9 C 20,9 km/h
25.07.2017 06:33 13,4 C 84 % 1004,9 hPa 0,0 l/m 10,1 km/h N-NW 333 0 min 0,0 UV-I 76 W/m 10,8 C 11,3 C 17,7 km/h
25.07.2017 06:30 13,4 C 83 % 1004,8 hPa 0,0 l/m 14,3 km/h N-NW 344 0 min 0,0 UV-I 72 W/m 10,6 C 9,5 C 25,7 km/h
25.07.2017 06:27 13,3 C 84 % 1004,6 hPa 0,0 l/m 13,3 km/h N 9 0 min 0,0 UV-I 62 W/m 10,7 C 9,8 C 27,4 km/h
25.07.2017 06:24 13,3 C 84 % 1004,7 hPa 0,0 l/m 13,3 km/h NW 319 0 min 0,0 UV-I 54 W/m 10,7 C 9,8 C 33,8 km/h
25.07.2017 06:21 13,3 C 84 % 1004,7 hPa 0,0 l/m 13,4 km/h NW 315 0 min 0,0 UV-I 49 W/m 10,7 C 9,7 C 27,4 km/h
25.07.2017 06:18 13,3 C 85 % 1004,7 hPa 0,0 l/m 10,6 km/h N 5 0 min 0,0 UV-I 46 W/m 10,8 C 10,9 C 22,5 km/h
25.07.2017 06:15 13,3 C 85 % 1004,7 hPa 0,0 l/m 11,5 km/h W-NW 302 0 min 0,0 UV-I 42 W/m 10,8 C 10,5 C 19,3 km/h
25.07.2017 06:12 13,3 C 85 % 1004,8 hPa 0,0 l/m 12,4 km/h N 350 0 min 0,0 UV-I 39 W/m 10,8 C 10,1 C 24,1 km/h
25.07.2017 06:09 13,3 C 85 % 1004,7 hPa 0,0 l/m 13,0 km/h NW 317 0 min 0,0 UV-I 35 W/m 10,8 C 9,9 C 25,7 km/h
25.07.2017 06:06 13,4 C 85 % 1004,8 hPa 0,0 l/m 13,2 km/h N-NW 336 0 min 0,0 UV-I 33 W/m 10,9 C 9,9 C 22,5 km/h
25.07.2017 06:03 13,3 C 85 % 1004,8 hPa 0,0 l/m 17,5 km/h N-NW 327 0 min 0,0 UV-I 32 W/m 10,8 C 8,3 C 33,8 km/h
25.07.2017 06:00 13,4 C 85 % 1004,7 hPa 0,0 l/m 13,1 km/h N-NW 328 0 min 0,0 UV-I 28 W/m 10,9 C 10,0 C 25,7 km/h
25.07.2017 05:57 13,4 C 85 % 1004,7 hPa 0,0 l/m 11,3 km/h W-NW 292 0 min 0,0 UV-I 26 W/m 10,9 C 10,7 C 17,7 km/h
25.07.2017 05:54 13,4 C 85 % 1004,8 hPa 0,0 l/m 17,6 km/h N-NW 344 0 min 0,0 UV-I 23 W/m 10,9 C 8,4 C 30,6 km/h
25.07.2017 05:51 13,4 C 85 % 1004,8 hPa 0,0 l/m 12,8 km/h NW 310 0 min 0,0 UV-I 19 W/m 10,9 C 10,1 C 29,0 km/h
25.07.2017 05:48 13,4 C 85 % 1004,6 hPa 0,0 l/m 14,0 km/h N-NW 330 0 min 0,0 UV-I 16 W/m 10,9 C 9,6 C 29,0 km/h
25.07.2017 05:45 13,5 C 85 % 1004,7 hPa 0,0 l/m 11,5 km/h NW 319 0 min 0,0 UV-I 12 W/m 11,0 C 10,8 C 20,9 km/h
25.07.2017 05:42 13,6 C 84 % 1004,6 hPa 0,0 l/m 10,9 km/h N-NW 341 0 min 0,0 UV-I 11 W/m 10,9 C 11,1 C 22,5 km/h
25.07.2017 05:39 13,6 C 84 % 1004,7 hPa 0,0 l/m 17,4 km/h N-NO 14 0 min 0,0 UV-I 9 W/m 10,9 C 8,7 C 29,0 km/h
25.07.2017 05:36 13,6 C 84 % 1004,7 hPa 0,0 l/m 12,8 km/h NW 320 0 min 0,0 UV-I 7 W/m 10,9 C 10,3 C 22,5 km/h
25.07.2017 05:33 13,6 C 84 % 1004,6 hPa 0,0 l/m 12,4 km/h N-NW 348 0 min 0,0 UV-I 7 W/m 10,9 C 10,5 C 27,4 km/h
25.07.2017 05:30 13,6 C 84 % 1004,7 hPa 0,0 l/m 14,8 km/h N-NW 328 0 min 0,0 UV-I 5 W/m 10,9 C 9,6 C 27,4 km/h
25.07.2017 05:27 13,7 C 84 % 1004,6 hPa 0,0 l/m 15,9 km/h N-NW 329 0 min 0,0 UV-I 0 W/m 11,0 C 9,3 C 40,2 km/h
25.07.2017 05:24 13,7 C 85 % 1004,5 hPa 0,0 l/m 10,2 km/h W-NW 302 0 min 0,0 UV-I 0 W/m 11,2 C 11,6 C 22,5 km/h
25.07.2017 05:21 13,7 C 85 % 1004,6 hPa 0,0 l/m 11,8 km/h N-NO 12 0 min 0,0 UV-I 0 W/m 11,2 C 10,9 C 24,1 km/h
25.07.2017 05:18 13,7 C 85 % 1004,7 hPa 0,0 l/m 14,2 km/h N-NW 344 0 min 0,0 UV-I 0 W/m 11,2 C 9,9 C 30,6 km/h
25.07.2017 05:15 13,8 C 85 % 1004,5 hPa 0,0 l/m 15,4 km/h NW 311 0 min 0,0 UV-I 0 W/m 11,3 C 9,6 C 32,2 km/h
25.07.2017 05:12 13,8 C 85 % 1004,4 hPa 0,0 l/m 17,0 km/h N 355 0 min 0,0 UV-I 0 W/m 11,3 C 9,1 C 32,2 km/h
25.07.2017 05:09 13,8 C 85 % 1004,4 hPa 0,0 l/m 17,2 km/h N 360 0 min 0,0 UV-I 0 W/m 11,3 C 9,0 C 27,4 km/h
25.07.2017 05:06 13,9 C 85 % 1004,5 hPa 0,0 l/m 15,8 km/h NW 320 0 min 0,0 UV-I 0 W/m 11,4 C 9,6 C 33,8 km/h
25.07.2017 05:03 13,9 C 85 % 1004,5 hPa 0,0 l/m 11,7 km/h N 355 0 min 0,0 UV-I 0 W/m 11,4 C 11,1 C 20,9 km/h
25.07.2017 05:00 13,9 C 85 % 1004,6 hPa 0,0 l/m 20,9 km/h W-NW 300 0 min 0,0 UV-I 0 W/m 11,4 C 8,1 C 40,2 km/h
25.07.2017 04:57 13,9 C 85 % 1004,5 hPa 0,0 l/m 15,7 km/h W-NW 293 0 min 0,0 UV-I 0 W/m 11,4 C 9,6 C 43,5 km/h
25.07.2017 04:54 13,9 C 85 % 1004,5 hPa 0,0 l/m 13,4 km/h NW 307 0 min 0,0 UV-I 0 W/m 11,4 C 10,4 C 24,1 km/h
25.07.2017 04:51 13,9 C 85 % 1004,6 hPa 0,0 l/m 10,2 km/h N-NW 333 0 min 0,0 UV-I 0 W/m 11,4 C 11,8 C 16,1 km/h
25.07.2017 04:48 13,9 C 85 % 1004,6 hPa 0,0 l/m 16,3 km/h W-NW 296 0 min 0,0 UV-I 0 W/m 11,4 C 9,4 C 25,7 km/h
25.07.2017 04:45 14,0 C 85 % 1004,6 hPa 0,0 l/m 20,7 km/h NW 319 0 min 0,0 UV-I 0 W/m 11,5 C 8,3 C 35,4 km/h
25.07.2017 04:42 14,0 C 85 % 1004,6 hPa 0,0 l/m 13,1 km/h NW 304 0 min 0,0 UV-I 0 W/m 11,5 C 10,7 C 24,1 km/h
25.07.2017 04:39 14,0 C 85 % 1004,7 hPa 0,0 l/m 13,7 km/h NW 315 0 min 0,0 UV-I 0 W/m 11,5 C 10,4 C 20,9 km/h
25.07.2017 04:36 14,1 C 85 % 1004,6 hPa 0,0 l/m 16,3 km/h N-NW 327 0 min 0,0 UV-I 0 W/m 11,6 C 9,7 C 29,0 km/h
25.07.2017 04:33 14,1 C 85 % 1004,6 hPa 0,0 l/m 12,9 km/h NW 304 0 min 0,0 UV-I 0 W/m 11,6 C 10,9 C 25,7 km/h
25.07.2017 04:30 14,1 C 85 % 1004,7 hPa 0,0 l/m 11,3 km/h N-NW 333 0 min 0,0 UV-I 0 W/m 11,6 C 11,5 C 24,1 km/h
25.07.2017 04:27 14,1 C 85 % 1004,8 hPa 0,0 l/m 12,8 km/h N 355 0 min 0,0 UV-I 0 W/m 11,6 C 10,9 C 27,4 km/h
25.07.2017 04:24 14,1 C 85 % 1004,7 hPa 0,0 l/m 12,2 km/h W 273 0 min 0,0 UV-I 0 W/m 11,6 C 11,2 C 25,7 km/h
25.07.2017 04:21 14,1 C 85 % 1004,7 hPa 0,0 l/m 12,6 km/h NW 314 0 min 0,0 UV-I 0 W/m 11,6 C 11,0 C 27,4 km/h
25.07.2017 04:18 14,2 C 86 % 1004,9 hPa 0,0 l/m 16,0 km/h N-NW 344 0 min 0,0 UV-I 0 W/m 11,9 C 9,9 C 25,7 km/h
25.07.2017 04:15 14,2 C 86 % 1004,8 hPa 0,0 l/m 13,2 km/h N-NO 14 0 min 0,0 UV-I 0 W/m 11,9 C 10,9 C 30,6 km/h
25.07.2017 04:12 14,2 C 86 % 1004,9 hPa 0,0 l/m 16,4 km/h NW 325 0 min 0,0 UV-I 0 W/m 11,9 C 9,8 C 30,6 km/h
25.07.2017 04:09 14,2 C 86 % 1004,8 hPa 0,0 l/m 12,5 km/h W-NW 286 0 min 0,0 UV-I 0 W/m 11,9 C 11,1 C 27,4 km/h
25.07.2017 04:06 14,2 C 86 % 1004,9 hPa 0,0 l/m 10,6 km/h W-NW 296 0 min 0,0 UV-I 0 W/m 11,9 C 12,0 C 17,7 km/h
25.07.2017 04:03 14,2 C 86 % 1004,8 hPa 0,0 l/m 11,6 km/h NW 317 0 min 0,0 UV-I 0 W/m 11,9 C 11,5 C 22,5 km/h
_ Min-Zeit 06:03 08:15 15:33 - 09:00 - - - - - 06:30 05:00 09:00
Minimum _ 13,3 C 77 % 1002,8 hPa - 0,0 km/h - - - - - 10,6 C 8,1 C 0,0 km/h
_ Max-Zeit 11:27 09:15 09:00 13:00 21:21 - - 18:27 14:24 14:30 12:21 11:27 04:57
Maximum _ 20,6 C 98 % 1009,3 hPa 1,0 l/m 21,2 km/h
N-NW
- - 7 min 6,8 UV-I 900 W/m 19,1 C 20,6 C 43,5 km/h
W-NW
Durchschnitt _ 16,7 C 90 % 1005,5 hPa #11,4 l/m 8,3 km/h N-NW - #1:18 h 1,1 UV-I 152 W/m 15,0 C 15,1 C 16,9 km/h
Schulla EDV